sat.trackr.live / text

‹ back to catalog

STARLINK-6265

NORAD 56557 · 2023-065BG

PAYLOAD ACTIVE UNKNOWN

§ Identity

Operator
Country
US
Launch date
2023-05-14
Launch site
AFETR
Launch vehicle
Mass (kg)
RCS (m²)

Purposes: comms

External: N2YO · Heavens-Above · Gunter

§ Orbital elements

Epoch: 2026-05-25T01:44:12.054336Z

Period
94.27 min
Inclination
43.0042°
Eccentricity
0.0001434
Mean motion
15.27577289 rev/d
Perigee alt
482.1 km
Apogee alt
484.0 km
Semi-major
6,861.2 km
B*
2.7905e-5
RAAN
152.2274°
Arg perigee
283.6504°
Mean anomaly
76.4188°
Rev number
16,815

§ Raw data

STARLINK-62651 56557U 23065BG  26145.07236174  .00000506  00000+0  27905-4 0  99992 56557  43.0042 152.2274 0001434 283.6504  76.4188 15.27577289168154

JSON: /api/v1/satellites/56557 · /tle

For live sub-satellite position, see the globe view (requires WebGL).

§ Visibility from observer

Set your observer location to see the next 7 days of passes ≥ 10°. The values pass through the URL so the page stays shareable.

No JS? Fill the form by hand. The geolocation button needs JavaScript.